EW1373 Weather Reports


Display with metric or nautical units.
time (UTC)temp
F
wind
direction
speed
MPH
gust
MPH
rain 1hr
in
rain 24hr
in
rain mn
in
humidity
%
barometer
mb
20180722105131 63 0.0 0.0 0.00 0.00 0.00 37 1004.3
20180722104130 63 0.0 0.0 0.00 0.00 0.00 37 1004.3
20180722103130 64 0.0 0.0 0.00 0.00 0.00 37 1004.4
20180722102130 63 0.0 0.0 0.00 0.00 0.00 38 1004.4
20180722101130 62 0.0 0.0 0.00 0.00 0.00 38 1004.4
20180722100132 61 0.0 0.0 0.00 0.00 0.00 38 1004.5
20180722095132 60 0.0 0.0 0.00 0.00 0.00 39 1004.8
20180722094132 60 0.0 1.0 0.00 0.00 0.00 39 1004.8
20180722093132 60 0.0 0.0 0.00 0.00 0.00 39 1004.8
20180722092132 60 225 1.0 5.0 0.00 0.00 0.00 39 1004.8
20180722091132 60 0.0 1.0 0.00 0.00 0.00 39 1004.8
20180722090132 60 0.0 1.0 0.00 0.00 0.00 39 1004.8
20180722085132 60 0.0 0.0 0.00 0.00 0.00 39 1004.8
20180722084132 61 0.0 1.0 0.00 0.00 0.00 39 1004.9
20180722083132 61 0.0 0.0 0.00 0.00 0.00 38 1005.2
20180722082132 60 0.0 0.0 0.00 0.00 0.00 39 1005.3
20180722081142 59 0.0 1.0 0.00 0.00 0.00 39 1005.3
20180722080132 58 0.0 1.0 0.00 0.00 0.00 39 1005.4
20180722075131 58 0.0 4.0 0.00 0.00 0.00 39 1005.5
20180722074132 58 0.0 5.0 0.00 0.00 0.00 39 1005.5
20180722073131 57 0.0 5.0 0.00 0.00 0.00 39 1005.6
20180722072131 57 0.0 1.0 0.00 0.00 0.00 39 1005.5
20180722071132 56 0.0 0.0 0.00 0.00 0.00 39 1005.5
20180722070131 56 0.0 2.0 0.00 0.01 0.00 39 1005.8
20180722065133 56 315 1.0 4.0 0.00 0.01 0.00 39 1005.7
20180722064133 57 0.0 1.0 0.00 0.01 0.00 39 1005.7
20180722063134 58 0.0 0.0 0.00 0.01 0.00 39 1005.6
20180722062133 56 0.0 1.0 0.00 0.01 0.00 39 1006.0
20180722061133 56 315 1.0 4.0 0.00 0.01 0.00 39 1005.9
20180722060133 56 315 2.0 5.0 0.00 0.01 0.00 39 1006.1
20180722055133 56 270 6.0 9.0 0.00 0.01 0.00 39 1005.9
20180722054133 56 45 5.0 7.0 0.00 0.01 0.00 39 1005.9
20180722053133 58 45 3.0 5.0 0.00 0.01 0.00 39 1005.9
20180722052134 59 0.0 0.0 0.00 0.01 0.00 39 1006.0
20180722051133 59 0.0 0.0 0.00 0.01 0.00 39 1006.0
20180722050154 59 0.0 0.0 0.00 0.01 0.00 39 1006.2
20180722045133 58 0.0 0.0 0.00 0.01 0.00 39 1006.4
20180722044133 57 0.0 0.0 0.00 0.01 0.00 39 1006.4
20180722043133 58 0.0 0.0 0.00 0.01 0.00 39 1006.4
20180722042133 57 0.0 0.0 0.00 0.01 0.00 39 1006.6
20180722041133 57 0.0 0.0 0.00 0.01 0.00 39 1006.6
20180722040133 57 0.0 0.0 0.00 0.01 0.00 39 1006.6
20180722035133 58 0.0 0.0 0.00 0.01 0.00 39 1006.6
20180722034135 58 0.0 0.0 0.00 0.01 0.00 39 1006.6
20180722033135 58 0.0 0.0 0.00 0.01 0.00 39 1006.8
20180722032135 58 0.0 0.0 0.00 0.01 0.00 39 1006.7
20180722031137 57 0.0 0.0 0.00 0.01 0.00 39 1006.6
20180722030135 57 0.0 0.0 0.00 0.01 0.00 39 1006.8
20180722025135 56 0.0 0.0 0.00 0.01 0.00 40 1007.1
20180722024135 55 0.0 0.0 0.00 0.01 0.00 40 1007.1
20180722023135 54 0.0 0.0 0.00 0.01 0.00 40 1007.1
20180722020135 55 0.0 0.0 0.00 0.01 0.00 40 1007.1
20180722015145 54 0.0 0.0 0.00 0.01 0.00 40 1007.0
20180722014135 52 0.0 0.0 0.00 0.01 0.00 40 1007.0
20180722013135 53 0.0 0.0 0.00 0.01 0.00 40 1007.1
20180722012135 56 45 1.0 5.0 0.00 0.01 0.00 39 1007.0
20180722011135 58 45 1.0 5.0 0.00 0.01 0.00 39 1007.0
20180722010135 58 45 1.0 5.0 0.00 0.01 0.00 40 1007.1
20180722005135 59 0.0 1.0 0.00 0.01 0.00 40 1007.0
20180722004135 59 45 2.0 6.0 0.00 0.01 0.00 40 1007.0
20180722003135 58 45 3.0 6.0 0.00 0.01 0.00 40 1007.1
20180722002137 58 45 4.0 6.0 0.00 0.01 0.00 40 1007.3
20180722001137 57 45 4.0 7.0 0.00 0.01 0.00 40 1007.3
20180722000137 57 45 1.0 6.0 0.00 0.01 0.00 40 1007.4
20180721234137 56 45 3.0 7.0 0.00 0.01 0.00 40 1007.3
20180721232137 55 22 1.0 6.0 0.00 0.01 0.01 40 1007.4
20180721231137 55 22 2.0 7.0 0.00 0.01 0.01 40 1007.4
20180721230137 54 22 4.0 9.0 0.00 0.01 0.01 40 1007.3
20180721225137 54 22 2.0 8.0 0.00 0.01 0.01 40 1007.3
20180721224147 53 22 5.0 8.0 0.00 0.01 0.01 40 1007.2
20180721223137 52 22 1.0 6.0 0.00 0.01 0.01 40 1007.4
20180721222137 52 0.0 1.0 0.00 0.01 0.01 40 1007.0
20180721221137 53 0.0 0.0 0.00 0.01 0.01 40 1007.0
20180721220137 54 22 2.0 6.0 0.00 0.01 0.01 40 1006.8
20180721215137 54 22 3.0 6.0 0.00 0.02 0.01 40 1006.9
20180721214137 54 22 2.0 6.0 0.00 0.02 0.01 40 1006.9
20180721213137 54 22 2.0 7.0 0.00 0.03 0.01 40 1006.6
20180721212137 54 22 3.0 8.0 0.00 0.03 0.01 40 1006.8
20180721211137 54 22 3.0 7.0 0.00 0.04 0.01 40 1006.8
20180721210137 53 22 4.0 7.0 0.00 0.04 0.01 40 1006.7
20180721205139 53 22 1.0 5.0 0.00 0.04 0.01 40 1006.7
20180721204139 53 22 1.0 5.0 0.00 0.04 0.01 40 1006.7
20180721203139 53 0.0 0.0 0.00 0.05 0.00 40 1006.8
20180721202138 54 22 1.0 7.0 0.00 0.05 0.00 40 1006.6
20180721201138 54 22 6.0 9.0 0.00 0.05 0.00 40 1006.6
20180721200138 55 22 6.0 9.0 0.00 0.05 0.00 40 1006.5
20180721195138 55 22 5.0 9.0 0.00 0.06 0.00 40 1006.5
20180721194138 55 22 6.0 9.0 0.00 0.06 0.00 40 1006.5
20180721193149 55 0 4.0 8.0 0.00 0.06 0.00 40 1006.5
20180721192138 55 22 3.0 6.0 0.00 0.06 0.00 40 1006.5
20180721191138 55 0 2.0 6.0 0.00 0.06 0.00 40 1006.5
20180721190138 55 0 3.0 6.0 0.00 0.06 0.00 40 1006.5
20180721185139 55 0 5.0 9.0 0.00 0.06 0.00 40 1006.5
20180721184138 56 0 1.0 6.0 0.00 0.06 0.00 40 1006.5
20180721183138 56 0 1.0 5.0 0.00 0.06 0.00 40 1006.6
20180721182138 56 0 1.0 5.0 0.00 0.06 0.00 40 1006.4
20180721181138 56 0 2.0 7.0 0.00 0.06 0.00 40 1006.4
20180721180138 56 0 3.0 7.0 0.00 0.06 0.00 40 1006.4
20180721175138 57 0.0 1.0 0.00 0.06 0.00 40 1006.2
20180721174138 57 0.0 0.0 0.00 0.06 0.00 40 1006.2
20180721173140 56 0 3.0 6.0 0.00 0.06 0.00 40 1006.0
20180721172140 56 0 5.0 7.0 0.00 0.06 0.00 40 1006.0
20180721171140 56 0 6.0 9.0 0.00 0.06 0.00 40 1006.0
20180721170140 56 0 7.0 10.0 0.00 0.06 0.00 40 1006.1
20180721165140 56 0 7.0 9.0 0.00 0.06 0.00 40 1006.3
20180721164140 56 22 7.0 12.0 0.00 0.06 0.00 40 1006.3
20180721163140 56 0 6.0 10.0 0.00 0.06 0.00 40 1006.4
20180721162150 55 0 4.0 6.0 0.00 0.06 0.00 40 1006.4
20180721161140 56 0 3.0 7.0 0.00 0.06 0.00 40 1006.4
20180721160140 57 0 2.0 6.0 0.00 0.06 0.00 40 1006.3
20180721155140 57 0 4.0 7.0 0.00 0.06 0.00 40 1006.3
20180721154140 57 0 1.0 4.0 0.00 0.07 0.00 40 1006.3
20180721153140 56 0.0 4.0 0.00 0.07 0.00 40 1006.2
20180721152140 57 0.0 0.0 0.00 0.08 0.00 40 1005.9
20180721151140 56 0.0 0.0 0.00 0.10 0.00 40 1005.9
20180721150140 56 0.0 1.0 0.00 0.12 0.00 40 1005.9
20180721145140 56 0.0 0.0 0.00 0.16 0.00 40 1005.9
20180721144140 55 0.0 0.0 0.00 0.20 0.00 40 1005.9
20180721143140 57 0.0 0.0 0.00 0.21 0.00 40 1005.8
20180721142140 58 0 1.0 6.0 0.00 0.21 0.00 40 1005.4
20180721141142 59 0 4.0 7.0 0.00 0.21 0.00 40 1005.5
20180721140142 59 0 3.0 6.0 0.00 0.21 0.00 40 1005.4
20180721135142 59 0 3.0 7.0 0.00 0.21 0.00 40 1005.2
20180721134142 59 0 3.0 6.0 0.00 0.21 0.00 40 1005.2
20180721133142 59 0 3.0 6.0 0.00 0.21 0.00 40 1005.1
20180721132142 59 0 2.0 6.0 0.00 0.21 0.00 40 1004.9
20180721131152 59 0 3.0 6.0 0.00 0.21 0.00 40 1005.0
20180721130142 59 0 3.0 6.0 0.00 0.21 0.00 40 1004.7
20180721125142 59 0 2.0 6.0 0.00 0.21 0.00 40 1004.6
20180721124142 60 0 2.0 5.0 0.00 0.21 0.00 40 1004.6
20180721123142 60 337 4.0 9.0 0.00 0.21 0.00 40 1004.4
20180721122142 60 337 2.0 7.0 0.00 0.21 0.00 40 1004.2
20180721121142 60 337 3.0 6.0 0.00 0.21 0.00 40 1004.2
20180721120142 60 337 3.0 6.0 0.00 0.21 0.00 40 1004.1
20180721115142 60 337 3.0 5.0 0.00 0.21 0.00 40 1003.9
20180721114142 60 0 2.0 6.0 0.00 0.21 0.00 40 1003.9
20180721113141 60 0.0 4.0 0.00 0.21 0.00 40 1003.6
20180721112142 59 0 1.0 5.0 0.00 0.21 0.00 40 1003.6
20180721111143 59 0 2.0 5.0 0.00 0.21 0.00 40 1003.6
20180721110143 59 0 3.0 6.0 0.00 0.21 0.00 40 1003.5